Simultaneous Nadir Overpasses (SNOs) Predictions

Prediction of SNOs between GOES-16 and METOP-C Satellite Orbit:

Table of predicted SNOs for the next 14.0 days since TLE Epoch: 9/25/2023
Index Date Time (GOES-16) GOES-16 Lat,Lon METOP-C Lat,Lon Distance(km) Time Diff (sec)
1 09/25/2023 14:26:05 -0.05, -75.21 -0.33, -73.96 142.95 80
2 09/27/2023 02:42:24 0.05, -75.20 -0.70, -78.55 382.05 80
3 09/28/2023 02:24:22 0.05, -75.20 0.39, -73.54 187.61 80
4 09/29/2023 14:40:31 -0.05, -75.21 0.61, -78.10 329.67 80
5 09/30/2023 14:22:30 -0.05, -75.21 -0.55, -73.11 240.52 80
6 10/02/2023 02:41:28 0.05, -75.21 -0.48, -77.70 283.13 80
7 10/03/2023 02:20:47 0.05, -75.22 0.62, -72.70 287.28 80
8 10/04/2023 14:36:54 -0.05, -75.24 0.42, -77.24 229.05 80
9 10/05/2023 14:18:53 -0.04, -75.24 -0.69, -72.24 341.71 80
10 10/07/2023 02:37:51 0.04, -75.25 -0.33, -76.83 180.93 80
11 10/08/2023 02:14:30 0.04, -75.26 0.78, -71.83 390.18 80
